Location: Bo?a Wola
(50.4192°N, 19.7966°E)
Time: 03:38:40
(UTC+00:00)

CZ-4C R/B - Pass Details

Date: 14 September 2024
Orbit: 519 x 1471 km, 63.4° (Epoch: 09 October)

Event Time Altitude Azimuth Distance (km) Brightness Sun altitude
Exits shadow 03:33:55 - 293° (WNW) 3,010 4.6 -7.3°
Reaches altitude 10° 03:35:55 10° 305° (NW) 2,423 4.2 -7.0°
Maximum altitude 03:40:34 25° 360° (N) 1,822 4.1 -6.3°
Drops below altitude 10° 03:46:11 10° 53° (NE) 2,980 6.3 -5.4°
Sets 03:49:47 0° 66° (ENE) 4,115 7.8 -4.9°
